Simultaneous Nadir Overpasses (SNOs) Predictions

Prediction of SNOs between AURA and NPP Satellite Orbit:

Table of predicted SNOs for the next 14.0 days since TLE Epoch: 2/26/2016
Index Date (AURA) Time (AURA) Lat,Lon (AURA) SZA (AURA ) Date (NPP) Time (NPP) Lat,Lon (NPP) SZA (NPP ) Distance(km) Time Diff (sec)
1 02/29/2016 02:52:24 -79.46,-146.40 79.31 02/29/2016 02:52:01 -79.47,-146.32 79.31 1.61 23
2 02/29/2016 03:41:45 79.64, 22.52 100.42 02/29/2016 03:42:40 79.64, 22.44 100.39 1.68 55
3 03/02/2016 18:19:58 78.02, 153.73 101.63 03/02/2016 18:18:44 78.12, 153.37 101.72 14.31 74
4 03/02/2016 19:08:49 -79.51, -30.21 80.40 03/02/2016 19:08:52 -79.51, -30.21 80.40 0.21 3
5 03/05/2016 10:35:55 79.26, -83.62 98.93 03/05/2016 10:35:07 79.25, -83.76 99.00 3.02 48
6 03/05/2016
